Temp_Advection
nan nan nan nan nan nan nan nan nan nan nan nan nan nan nan nan nan nan nan nan nan nan nan nan nan nan nan nan nan nan nan nan nan nan nan nan nan nan nan nan nan nan nan nan nan nan nan nan nan
nan 0 -0 -0 -0 0 -0 -0 -0 -0 -0 -0 0 -0 -0 -0 -0 -0 -0 -0 0 0 0 0 0 0 0 0 0 0 -0 0 0 0 0 0 0 0 0 0 0 0 1 1 1 0 0 0 nan
nan -0 0 -1 0 -0 -0 -0 -0 -0 -0 -0 -0 -0 -0 -0 -0 -0 -0 0 -0 -0 -0 0 0 0 0 0 0 0 0 0 0 0 0 0 0 0 0 0 0 0 0 1 1 0 0 0 nan
nan -0 -1 -0 -0 -0 -0 -0 0 -0 -1 -0 0 -0 -0 -0 -0 0 0 -0 -0 -0 -0 0 0 0 0 0 0 0 0 0 0 0 1 1 1 1 1 1 1 0 0 0 0 0 0 0 nan
nan -0 -0 -0 -0 -0 -0 -1 -0 0 -0 -1 0 -0 -0 -0 0 0 0 -0 0 0 0 0 0 0 0 0 0 0 0 0 0 0 1 0 0 1 1 1 0 1 1 0 0 0 0 0 nan
nan -0 -0 -0 -0 -0 -0 -1 0 -0 -0 -0 -0 0 -0 -0 0 0 0 0 0 0 0 0 0 0 0 0 0 0 0 0 0 0 0 0 0 0 0 -0 0 0 0 0 0 -0 -0 0 nan
nan 0 -0 -0 -0 -0 -1 -0 -0 -0 -0 0 0 0 -0 0 0 0 0 1 1 1 0 0 0 0 0 0 0 0 1 1 1 0 0 0 0 0 -1 -0 0 0 0 0 0 -1 -0 -0 nan
nan -0 0 -0 -0 -1 -0 -0 -0 -0 -0 -0 -0 0 -0 -1 -0 0 1 1 0 0 0 0 0 0 0 0 0 1 1 1 1 1 1 1 1 -0 -0 1 1 -0 0 0 -0 -0 0 0 nan
nan -0 -0 -0 -0 -0 -0 -0 -0 -0 -0 -1 -0 0 -0 -1 -0 0 1 0 0 0 0 0 0 0 0 0 0 1 1 1 1 1 1 1 0 -0 0 1 -0 0 1 0 -0 1 0 1 nan
nan -0 -1 -0 -0 -0 -0 -0 -1 -0 -1 -1 -1 -0 -0 -0 -0 0 0 0 -0 -0 0 0 0 1 0 0 0 0 1 1 0 1 0 1 -0 0 0 1 1 0 1 0 0 1 1 1 nan
nan -0 -0 -1 -1 0 0 -0 -1 0 -0 -1 -1 -1 -0 -0 -0 -0 -0 -0 -0 1 1 1 1 1 0 0 0 0 1 1 1 0 0 0 0 1 0 0 1 0 0 -0 1 1 1 0 nan
nan -0 -1 -1 -0 1 -0 -0 0 -0 -1 -1 -0 -0 -0 -0 -0 -0 -0 -0 1 1 1 1 1 1 0 1 1 1 1 1 1 1 0 0 1 1 0 1 -0 1 -0 -1 0 0 0 -0 nan
nan -0 -1 -1 -0 0 1 0 -0 -1 -2 -1 -0 -0 -0 -0 -0 -0 -0 0 1 -0 0 1 1 1 1 1 1 1 1 1 1 0 0 1 1 0 1 1 0 0 -1 -1 0 0 0 -0 nan
nan -0 -0 0 0 0 0 -0 -0 -1 -1 -0 -0 -0 0 -0 -0 -0 -0 -0 -1 0 1 1 1 1 1 1 1 1 1 1 1 0 0 0 0 0 1 1 0 -1 -1 0 1 0 -0 0 nan
nan 0 0 -0 0 -0 0 0 -1 -3 0 0 -0 -0 -0 0 0 -0 -0 -0 -1 -0 0 1 2 1 1 1 1 1 1 1 0 0 0 0 0 0 1 0 -0 -0 1 1 1 0 0 0 nan
nan 0 -0 -0 0 -0 0 -0 -0 -0 0 -1 -1 -1 -0 -0 0 0 -0 -0 -0 0 0 2 2 1 1 1 1 1 1 1 0 0 1 1 0 0 1 -0 1 0 1 1 0 0 0 0 nan
nan -0 0 -0 -0 0 0 -0 0 -1 -1 -0 -1 -1 -1 -1 -1 0 -0 -1 -0 0 1 1 2 1 1 1 1 1 1 1 0 1 1 0 0 0 0 0 -1 -1 0 0 0 0 0 -0 nan
nan 0 -0 -0 -0 0 0 0 -1 -2 -0 -1 -1 -1 -1 -1 -1 -0 -0 -1 -1 0 1 1 1 1 2 1 1 1 1 0 0 0 0 0 0 0 -0 -1 -1 -0 0 0 -0 0 -0 0 nan
nan 0 -0 -0 -0 -0 0 1 -0 -1 -0 -1 -1 -1 -1 -1 -1 -1 -0 -1 -1 0 1 1 1 1 1 1 1 0 0 -0 0 -0 0 1 0 0 -0 -1 -0 1 -0 -0 -0 0 0 1 nan
nan 0 -0 -0 0 0 0 -1 -0 -0 -0 -1 -1 -0 -1 -1 -1 -0 0 -1 -0 1 0 1 1 1 1 1 1 1 0 0 0 0 0 0 -0 -0 -0 0 1 0 -1 -0 -0 -0 0 -0 nan
nan -0 -0 -0 -0 0 -0 -1 -0 0 -0 -1 -1 -0 -0 -1 -1 -1 -0 -0 -1 1 1 2 1 1 2 2 1 0 0 0 0 0 -0 -0 -0 -0 0 0 -0 -1 -1 -0 -0 -0 -0 -1 nan
nan -0 -0 0 -0 -0 0 -0 0 -0 -0 -0 -1 -1 -0 -1 -2 -2 -2 -1 -1 1 2 1 0 1 2 2 0 -0 0 0 -0 -0 -0 -1 -0 0 0 -0 -0 -0 0 0 -0 0 -0 -0 nan
nan -0 0 0 0 0 0 -0 0 -0 -0 0 -0 -1 -1 -1 -1 -2 -2 -2 -1 -0 1 1 0 1 1 1 0 0 1 0 -0 0 0 -0 0 0 -0 0 0 0 0 -0 0 0 -0 0 nan
nan 0 0 -0 -0 -0 -0 0 -0 0 0 0 -0 -1 -0 -1 -1 -1 -2 -2 -1 1 1 1 1 1 1 1 0 0 1 0 0 -0 -0 0 0 -0 0 -0 -1 -0 0 -0 0 0 0 -0 nan
nan -0 0 0 -0 -0 -0 0 -1 0 -0 -0 -0 -0 -0 -0 0 0 -1 -1 -2 -1 1 1 1 0 1 1 0 1 1 0 0 -0 0 0 0 0 -0 -0 0 1 -0 -0 1 0 0 0 nan
nan -0 -0 -0 -0 -0 -0 -0 -0 -0 -0 -0 -0 -0 -1 -0 0 1 0 -1 -1 -1 -0 1 1 1 1 1 0 1 1 1 0 1 0 0 0 0 0 0 0 -0 -0 0 0 1 0 1 nan
nan 0 -0 -0 0 -0 -0 -0 -0 -0 -0 -0 -1 -1 -1 -0 -0 -0 1 -1 -1 -1 -0 0 0 1 1 1 1 1 1 0 0 0 0 0 0 0 0 -0 -0 0 0 -0 1 1 1 2 nan
nan -0 -0 -0 0 0 0 -0 0 -1 -0 -0 -0 -0 -1 -1 -1 -1 -0 2 -0 -0 0 -0 0 0 1 2 1 1 0 0 0 -0 -0 0 -0 -0 -0 -0 0 0 -0 1 1 0 1 2 nan
nan -0 -0 0 -0 0 -0 -0 -0 -0 -0 0 -0 -0 -0 -1 -2 -1 -1 -0 0 0 0 -0 -0 -0 1 1 1 0 0 0 -0 -0 0 -0 -0 -0 0 0 0 0 0 0 0 -0 1 1 nan
nan nan nan nan nan nan nan nan nan nan nan nan nan nan nan nan nan nan nan nan nan nan nan nan nan nan nan nan nan nan nan nan nan nan nan nan nan nan nan nan nan nan nan nan nan nan nan nan nan
Wind_Speed
7 4 2 1 3 4 3 5 2 4 3 2 4 4 7 4 6 5 19 16 13 11 10 9 5 8 13 19 19 18 18 19 22 25 25 25 24 25 24 24 24 23 24 23 21 21 19 19 16
6 5 1 2 4 2 5 4 4 5 7 10 2 3 2 3 5 5 24 16 11 11 9 7 7 11 15 19 19 18 19 19 21 25 26 26 25 25 24 24 23 23 22 21 22 20 18 17 15
7 4 0 4 3 5 5 5 4 5 7 2 3 4 3 3 9 4 15 16 14 11 9 7 7 11 16 19 20 19 19 19 20 23 27 26 24 23 21 20 19 20 19 19 21 21 20 17 15
5 3 4 3 6 6 5 2 4 10 12 0 5 5 4 7 4 10 14 17 14 10 10 9 9 12 16 19 19 19 19 20 20 21 23 24 25 26 23 22 21 19 17 18 21 22 20 19 18
7 3 2 2 6 5 6 6 4 6 6 13 8 6 5 8 12 10 15 14 14 13 13 12 12 12 14 18 19 20 20 21 22 25 24 23 22 23 23 22 17 17 16 18 20 23 21 20 18
4 3 2 5 6 4 5 11 4 3 9 12 6 4 7 10 14 14 14 15 17 15 15 14 14 15 15 18 20 20 21 22 23 22 30 27 20 22 17 13 14 13 15 19 22 22 22 21 20
7 5 5 4 5 5 5 7 4 3 4 4 13 3 8 17 16 15 19 23 21 18 16 14 15 17 17 18 20 20 21 23 23 27 28 22 31 30 24 12 14 13 17 20 21 24 23 22 21
6 4 6 6 4 7 3 3 4 10 5 10 10 3 6 11 18 20 22 25 23 21 19 17 16 18 19 21 21 21 22 23 23 28 29 32 32 33 29 22 21 16 19 22 24 25 23 23 21
7 3 5 7 7 6 4 5 3 11 10 15 6 17 26 22 12 23 25 29 28 27 24 20 19 20 20 22 21 22 24 24 25 29 30 33 35 37 31 25 19 19 20 22 27 27 26 23 20
5 5 11 7 6 6 3 5 23 8 14 22 29 24 22 20 18 19 27 31 31 30 29 25 23 22 21 22 22 23 25 28 29 32 32 36 40 41 29 26 31 27 24 26 30 30 28 26 22
6 6 5 7 16 14 5 4 20 5 6 17 28 25 27 25 19 19 24 30 32 33 32 30 26 23 22 23 23 22 24 28 32 34 34 41 40 36 29 28 31 31 28 29 34 33 32 28 23
5 9 11 8 21 8 6 9 5 17 19 24 23 29 25 22 18 21 26 27 32 37 35 33 28 26 24 24 26 24 25 29 32 36 38 43 41 36 36 32 34 33 30 34 38 37 33 27 22
5 4 13 20 22 25 23 17 18 11 21 24 22 24 23 16 16 18 24 29 36 39 39 37 33 30 27 27 28 27 26 30 33 34 41 41 43 42 40 34 36 37 32 34 40 39 34 28 25
4 7 8 11 16 17 9 10 7 15 25 24 23 20 14 14 12 12 20 25 33 37 41 42 38 33 30 30 29 28 28 28 30 34 37 38 44 48 46 38 41 40 36 36 42 40 35 29 26
7 5 5 6 7 7 9 7 9 27 24 14 12 15 19 22 19 19 22 24 28 34 43 45 43 35 32 30 28 26 27 25 26 29 32 36 40 52 50 43 46 44 39 38 44 39 33 28 27
2 1 2 3 5 6 11 15 3 11 10 17 25 26 22 25 28 30 28 30 29 32 37 46 46 36 32 29 26 24 24 22 23 24 26 30 35 49 54 47 50 47 42 39 44 41 34 30 29
2 7 7 4 5 2 7 13 5 7 26 20 24 27 27 30 33 34 32 32 30 32 33 39 46 36 33 26 24 22 21 23 24 26 27 29 32 46 45 53 53 45 42 41 46 43 37 33 29
6 5 4 4 2 2 6 14 8 20 18 22 28 27 28 31 36 37 30 34 28 30 27 33 40 35 31 24 24 21 22 24 24 28 26 28 35 43 57 49 55 50 44 41 46 46 39 33 29
1 4 5 1 3 6 14 19 10 11 13 15 24 26 27 35 34 40 35 35 23 27 20 27 36 35 32 29 24 23 24 25 25 22 21 19 26 46 51 53 48 53 45 42 46 47 42 36 31
5 5 13 4 6 6 8 18 11 9 7 18 20 22 28 32 40 38 33 24 21 23 21 26 34 36 33 27 23 23 23 22 20 17 16 15 20 34 53 51 50 52 45 42 46 50 46 39 33
6 8 4 9 2 5 5 11 4 5 4 13 17 19 25 33 35 34 30 25 21 23 24 29 37 35 32 24 23 22 20 19 19 16 15 20 26 31 37 42 43 47 45 42 45 49 49 45 37
14 10 11 10 3 4 3 9 5 5 2 3 16 25 23 20 26 28 31 30 24 23 23 31 35 35 29 25 26 25 26 26 24 22 18 23 28 35 30 34 34 39 39 41 45 49 49 48 43
6 7 8 5 5 2 4 3 4 7 9 6 7 14 16 20 23 26 29 28 27 23 24 30 37 33 28 28 28 25 25 23 23 22 24 25 28 32 34 33 35 34 38 39 44 49 51 49 47
3 4 3 2 3 3 8 6 14 2 4 3 4 15 15 20 25 25 30 23 20 25 22 31 39 34 29 30 29 26 25 25 23 26 28 31 32 33 33 37 36 37 36 40 44 48 50 49 49
3 5 1 2 1 5 6 5 14 7 6 1 3 9 16 19 29 37 29 32 22 25 25 33 41 36 32 31 30 28 26 24 25 25 27 30 35 36 36 41 41 44 41 41 44 49 50 49 50
6 8 5 5 4 2 1 5 5 2 4 7 10 18 19 26 30 33 35 34 26 23 26 33 42 37 33 32 29 28 27 27 28 28 27 30 34 39 40 44 42 43 43 41 45 47 48 47 46
4 4 3 3 1 2 4 5 5 5 8 9 15 20 24 31 34 30 34 36 32 26 26 32 42 39 33 32 28 27 26 25 25 26 29 33 34 36 44 44 44 47 46 45 43 46 49 46 45
2 2 3 2 3 5 3 2 1 9 8 8 9 12 21 33 35 29 33 42 38 27 23 26 38 37 31 31 27 28 26 24 21 19 19 23 28 33 39 43 44 54 52 52 50 47 49 48 49
1 2 4 4 2 1 2 3 4 5 5 8 9 16 23 31 35 31 36 44 41 22 22 24 35 33 27 28 25 28 26 23 19 16 15 20 22 22 23 33 46 52 59 54 51 45 45 51 50
3 3 3 3 3 2 1 5 5 4 5 9 15 20 19 21 26 32 39 45 29 20 21 24 33 30 27 26 23 26 25 23 20 15 11 11 14 14 13 23 29 41 49 53 52 46 47 41 38
Wind_Direction
218 194 159 164 46 62 264 258 267 299 272 273 141 150 190 156 165 206 153 159 161 163 173 166 147 193 193 197 195 192 185 182 181 184 184 182 178 173 170 169 168 168 167 168 171 172 174 166 163
193 166 120 121 92 66 264 248 220 219 288 291 227 154 171 244 178 163 169 174 172 176 179 169 155 186 194 198 200 195 190 183 182 186 187 185 181 177 175 173 174 173 172 174 174 171 173 165 166
177 155 288 92 114 185 223 210 213 256 318 215 311 224 201 210 207 200 183 189 179 181 186 177 168 184 196 200 202 201 198 190 188 189 189 188 186 182 180 181 184 185 175 172 168 172 178 173 168
163 150 68 95 226 249 220 224 287 336 344 327 214 278 253 209 195 221 202 193 188 189 190 188 182 187 196 202 204 206 203 197 192 183 188 180 189 184 188 188 188 191 193 178 172 179 178 176 174
155 110 50 286 250 255 256 269 309 303 287 267 230 227 244 233 228 214 208 197 205 199 193 193 191 189 195 205 207 209 206 203 197 187 217 185 200 187 188 185 191 192 196 183 181 180 180 183 183
117 104 77 252 241 241 267 261 271 247 294 283 203 171 240 243 230 205 217 214 209 204 196 200 196 192 191 203 209 213 214 210 205 202 187 205 218 189 190 180 203 194 194 189 189 181 186 189 189
135 107 208 255 264 282 232 195 193 234 344 14 313 204 254 258 226 211 219 215 213 204 205 207 211 203 200 202 209 214 216 215 210 206 207 218 194 193 189 182 224 210 198 198 190 187 192 191 185
170 112 162 229 245 275 249 268 184 40 311 349 356 232 298 325 217 222 221 218 217 215 211 216 218 217 213 209 212 215 219 217 214 213 215 202 190 193 198 226 243 219 211 202 194 194 188 185 175
171 100 192 226 186 225 249 24 227 319 291 310 304 299 306 299 287 231 221 218 219 221 220 219 224 224 224 222 219 217 219 217 215 217 215 214 205 200 223 229 201 212 211 206 193 187 183 178 172
162 178 205 217 207 249 239 317 302 327 316 310 313 321 324 301 288 242 229 227 228 229 227 224 229 227 228 229 227 225 220 218 218 218 220 212 203 209 220 226 223 209 213 203 188 184 181 179 169
203 217 219 240 234 256 262 241 283 276 300 287 296 304 314 310 277 251 245 245 248 242 234 231 230 228 229 231 232 226 227 222 221 220 218 211 210 211 216 196 193 191 199 193 184 184 186 183 182
226 236 214 230 247 254 251 273 243 253 260 291 289 296 298 302 280 269 250 252 254 244 240 235 234 231 231 231 234 230 231 231 226 227 220 219 217 214 200 197 190 195 196 190 186 187 189 191 192
225 228 235 247 261 267 273 265 269 242 273 287 290 284 290 286 281 275 262 267 258 249 246 241 238 235 233 232 234 234 237 241 233 229 226 227 220 212 206 204 197 195 196 194 192 189 192 194 187
220 215 251 254 251 252 246 255 243 279 288 285 280 276 284 296 297 289 278 272 270 264 252 245 241 238 236 233 235 241 247 250 240 229 230 223 220 214 209 206 197 202 198 195 195 192 194 192 190
253 275 262 216 214 229 249 266 235 274 278 277 287 291 300 303 298 301 308 296 291 275 257 249 244 240 237 236 237 244 255 249 236 228 224 225 221 215 208 206 203 198 198 195 193 193 195 191 187
257 236 288 254 190 244 168 262 184 291 309 315 310 308 301 304 303 305 308 308 291 297 252 248 242 238 237 235 239 249 254 236 224 222 221 219 227 217 211 208 206 200 198 195 193 192 193 186 187
295 257 231 307 211 211 203 277 240 305 314 297 299 302 302 303 304 302 302 306 293 299 255 250 241 233 236 231 242 246 241 229 228 229 234 241 232 212 218 212 207 200 196 195 194 193 195 190 191
211 240 239 204 350 138 274 269 277 290 290 293 300 301 302 302 303 307 305 302 287 296 261 249 239 229 228 227 235 233 228 228 232 234 252 251 237 215 204 209 200 194 200 195 194 195 195 196 193
149 224 246 333 282 327 278 276 278 275 287 286 295 298 306 306 311 310 308 304 286 295 259 241 227 225 220 222 226 224 222 222 228 242 255 243 229 220 188 201 201 195 198 195 195 195 197 193 195
227 266 272 266 247 197 261 277 272 259 253 261 277 297 307 307 314 320 313 292 292 288 260 236 221 222 221 225 225 224 220 221 229 236 255 218 196 195 194 201 203 194 198 196 197 196 193 196 193
203 221 186 233 319 255 278 278 203 261 244 270 290 304 299 303 319 324 319 300 293 281 258 233 216 216 222 221 220 213 211 217 222 208 213 188 186 186 194 200 201 197 198 197 199 201 200 196 191
247 185 225 254 132 238 106 288 206 209 249 315 287 298 307 332 328 317 315 303 294 280 258 231 216 217 219 216 216 213 208 209 210 197 194 184 190 192 194 194 199 200 200 201 201 202 203 203 197
217 172 193 200 198 187 196 234 100 333 311 290 305 313 341 339 331 337 335 295 293 277 256 228 217 217 218 217 217 216 210 215 212 196 198 199 202 200 205 205 204 207 209 206 207 205 205 205 207
122 154 163 93 132 254 177 155 286 187 172 279 305 328 343 351 349 340 347 334 274 265 250 224 216 216 218 219 216 219 211 206 209 207 200 191 205 207 208 202 206 214 215 213 210 211 209 208 212
132 103 275 316 183 233 154 178 256 283 298 103 311 324 339 350 355 356 348 352 307 257 245 224 215 213 217 219 217 215 212 211 210 212 211 211 207 203 216 212 212 216 221 218 214 214 212 212 215
177 167 169 205 202 237 302 232 237 248 59 23 8 352 349 344 344 346 354 357 333 290 258 229 217 213 214 215 218 213 210 211 217 216 216 219 220 219 215 216 219 220 219 222 219 217 217 216 216
162 165 185 135 10 88 226 295 304 22 14 10 357 356 352 347 338 339 344 345 336 309 271 240 220 215 214 218 217 211 209 212 216 221 221 222 223 226 228 222 225 226 225 222 220 217 217 216 223
105 100 115 38 184 246 234 262 236 8 342 332 333 336 344 347 341 333 340 338 332 300 272 249 224 221 215 217 216 210 207 212 213 222 219 226 227 232 238 234 227 219 225 228 221 215 215 217 219
48 68 66 113 77 244 312 254 133 39 337 309 304 314 331 335 342 345 340 331 333 286 263 245 221 216 219 217 212 209 206 207 202 206 217 233 231 231 239 245 233 212 219 222 223 217 220 217 219
78 81 61 127 166 143 195 259 208 23 350 334 285 306 323 332 345 354 343 335 324 266 250 233 220 213 222 213 213 211 208 204 205 198 204 219 229 241 239 237 222 214 216 217 227 212 220 206 211
Height
1487 1489 1490 1491 1502 1505 1506 1497 1487 1482 1479 1476 1476 1475 1475 1473 1480 1494 1476 1478 1480 1481 1482 1482 1482 1483 1484 1486 1488 1490 1493 1497 1499 1502 1504 1507 1509 1512 1514 1516 1518 1519 1521 1524 1527 1529 1530 1532 1534
1487 1489 1490 1491 1508 1515 1504 1488 1485 1479 1476 1474 1474 1474 1474 1474 1474 1475 1477 1478 1479 1480 1481 1481 1480 1482 1484 1486 1487 1489 1492 1496 1499 1502 1505 1508 1510 1512 1514 1517 1519 1521 1522 1524 1527 1530 1532 1532 1535
1486 1489 1491 1498 1513 1512 1500 1482 1477 1476 1473 1472 1475 1474 1473 1472 1473 1473 1475 1477 1478 1479 1480 1480 1480 1481 1484 1486 1488 1489 1492 1495 1499 1501 1505 1508 1511 1513 1515 1518 1520 1522 1524 1524 1526 1530 1531 1533 1536
1486 1489 1493 1502 1504 1495 1486 1475 1475 1472 1469 1470 1473 1474 1473 1471 1470 1471 1472 1475 1476 1477 1480 1480 1480 1481 1483 1486 1488 1489 1491 1494 1496 1501 1506 1508 1511 1510 1514 1516 1519 1522 1525 1528 1526 1528 1530 1533 1535
1485 1488 1500 1503 1498 1487 1478 1473 1474 1474 1472 1468 1470 1470 1470 1468 1469 1470 1471 1472 1473 1475 1478 1479 1480 1480 1482 1485 1487 1490 1491 1492 1495 1499 1499 1504 1511 1514 1515 1515 1520 1521 1524 1529 1529 1528 1531 1533 1536
1484 1488 1505 1506 1492 1481 1476 1472 1473 1473 1470 1468 1468 1467 1467 1466 1467 1469 1470 1472 1472 1473 1475 1478 1480 1481 1481 1485 1487 1488 1490 1491 1493 1494 1497 1499 1506 1513 1520 1520 1521 1521 1525 1529 1530 1529 1531 1534 1537
1482 1491 1499 1494 1488 1482 1474 1469 1470 1470 1467 1466 1467 1466 1465 1465 1466 1467 1468 1470 1472 1472 1473 1475 1477 1480 1480 1482 1486 1487 1488 1490 1492 1493 1494 1496 1498 1510 1509 1509 1523 1522 1526 1528 1529 1528 1531 1535 1538
1478 1484 1494 1489 1484 1481 1469 1468 1467 1467 1466 1466 1467 1466 1466 1465 1464 1465 1466 1468 1471 1472 1471 1473 1474 1477 1479 1480 1483 1485 1486 1488 1490 1491 1492 1496 1500 1504 1504 1506 1517 1524 1524 1527 1528 1527 1531 1535 1539
1477 1488 1494 1481 1479 1468 1466 1467 1466 1466 1465 1465 1466 1466 1465 1463 1463 1463 1463 1463 1464 1467 1469 1469 1471 1473 1476 1478 1479 1482 1484 1485 1487 1488 1490 1494 1497 1500 1502 1506 1513 1520 1523 1526 1527 1528 1531 1536 1539
1475 1483 1480 1467 1465 1463 1464 1466 1464 1465 1463 1460 1459 1459 1460 1461 1460 1459 1460 1460 1462 1463 1463 1465 1466 1468 1472 1475 1477 1477 1480 1481 1484 1485 1487 1489 1493 1497 1500 1505 1508 1513 1521 1524 1525 1528 1531 1535 1538
1468 1469 1466 1462 1461 1462 1462 1462 1463 1463 1463 1462 1459 1456 1457 1457 1457 1457 1456 1456 1455 1456 1459 1460 1461 1464 1467 1470 1472 1473 1475 1477 1480 1481 1482 1485 1489 1494 1499 1502 1506 1510 1515 1521 1524 1527 1530 1534 1538
1467 1461 1460 1459 1460 1461 1461 1458 1457 1458 1457 1457 1457 1456 1455 1454 1454 1454 1454 1452 1452 1452 1455 1456 1458 1459 1462 1465 1467 1469 1470 1472 1475 1477 1479 1481 1484 1489 1493 1499 1501 1506 1512 1517 1520 1524 1529 1534 1538
1459 1457 1456 1456 1456 1455 1456 1454 1451 1449 1452 1453 1453 1453 1452 1450 1450 1450 1451 1451 1449 1450 1450 1452 1453 1454 1456 1459 1463 1464 1465 1466 1469 1472 1473 1477 1480 1484 1489 1495 1499 1504 1508 1513 1519 1524 1528 1533 1537
1451 1451 1451 1451 1451 1451 1451 1447 1449 1444 1446 1448 1449 1448 1448 1447 1448 1448 1448 1446 1445 1444 1444 1446 1448 1450 1451 1453 1457 1459 1460 1461 1463 1466 1468 1471 1475 1479 1483 1489 1494 1501 1505 1509 1517 1522 1526 1531 1537
1449 1451 1449 1447 1447 1447 1447 1445 1444 1441 1443 1443 1444 1444 1444 1443 1443 1443 1442 1441 1438 1435 1437 1438 1441 1445 1447 1449 1452 1454 1454 1455 1457 1460 1463 1465 1468 1471 1477 1483 1489 1496 1502 1507 1515 1522 1526 1531 1536
1449 1448 1452 1441 1441 1441 1444 1437 1436 1438 1439 1439 1438 1438 1439 1438 1437 1436 1435 1432 1429 1426 1424 1428 1433 1438 1442 1444 1447 1449 1449 1450 1453 1456 1458 1460 1462 1464 1471 1477 1483 1491 1499 1504 1512 1519 1524 1529 1535
1454 1453 1451 1446 1440 1441 1442 1433 1434 1435 1435 1434 1434 1434 1433 1431 1430 1428 1426 1423 1420 1418 1415 1419 1424 1430 1435 1439 1441 1443 1444 1446 1449 1451 1453 1454 1457 1456 1463 1471 1477 1488 1495 1500 1509 1516 1522 1526 1533
1453 1452 1451 1447 1440 1441 1442 1436 1435 1433 1431 1429 1428 1427 1426 1423 1420 1419 1416 1413 1410 1409 1407 1412 1418 1424 1428 1433 1436 1437 1439 1441 1444 1445 1445 1446 1446 1451 1453 1463 1472 1484 1492 1498 1506 1513 1519 1525 1532
1444 1446 1449 1445 1441 1443 1440 1431 1433 1428 1426 1425 1423 1422 1419 1416 1413 1410 1407 1404 1401 1401 1401 1404 1409 1418 1422 1425 1429 1431 1433 1436 1438 1440 1439 1438 1438 1445 1444 1456 1468 1479 1487 1494 1503 1511 1516 1524 1530
1444 1446 1443 1443 1439 1443 1442 1428 1425 1422 1419 1419 1418 1417 1414 1412 1408 1403 1399 1395 1395 1395 1395 1399 1404 1412 1417 1421 1424 1426 1429 1432 1435 1436 1434 1436 1436 1437 1443 1453 1464 1476 1484 1491 1498 1505 1512 1520 1526
1442 1444 1444 1443 1440 1438 1436 1421 1415 1414 1414 1414 1414 1413 1412 1410 1405 1397 1393 1391 1390 1389 1391 1394 1399 1405 1412 1417 1421 1423 1427 1430 1431 1433 1433 1435 1438 1442 1448 1454 1463 1474 1481 1487 1494 1501 1508 1514 1521
1434 1430 1432 1435 1445 1450 1431 1435 1414 1414 1416 1416 1411 1410 1410 1408 1402 1396 1391 1388 1387 1387 1388 1393 1399 1402 1408 1414 1417 1419 1421 1424 1427 1431 1432 1435 1439 1444 1449 1456 1464 1471 1477 1484 1491 1499 1505 1510 1515
1426 1424 1429 1432 1439 1440 1438 1444 1419 1409 1416 1413 1410 1409 1408 1405 1400 1395 1389 1384 1384 1383 1384 1389 1395 1399 1405 1411 1414 1416 1419 1423 1426 1430 1432 1435 1440 1444 1448 1455 1461 1468 1474 1482 1488 1494 1501 1506 1512
1417 1423 1426 1431 1437 1445 1433 1438 1403 1415 1411 1411 1409 1408 1406 1402 1398 1393 1388 1380 1379 1379 1379 1384 1389 1395 1401 1408 1411 1412 1415 1420 1425 1428 1430 1434 1438 1442 1447 1452 1459 1464 1471 1477 1484 1491 1497 1503 1509
1418 1426 1436 1438 1441 1435 1422 1434 1409 1408 1404 1407 1409 1406 1403 1399 1395 1391 1384 1379 1376 1376 1378 1381 1385 1389 1395 1403 1408 1410 1413 1418 1422 1426 1428 1431 1435 1439 1444 1449 1454 1460 1466 1472 1479 1486 1492 1499 1505
1415 1419 1430 1430 1434 1429 1422 1428 1416 1402 1403 1405 1404 1401 1398 1394 1391 1387 1383 1377 1376 1374 1376 1378 1381 1385 1390 1398 1403 1406 1410 1414 1419 1423 1426 1429 1432 1436 1440 1445 1448 1452 1460 1466 1473 1481 1489 1496 1503
1411 1416 1410 1420 1422 1431 1425 1415 1407 1402 1404 1403 1400 1397 1395 1392 1388 1384 1380 1376 1375 1372 1373 1376 1378 1382 1386 1393 1398 1403 1407 1411 1415 1419 1422 1425 1428 1431 1436 1438 1442 1446 1453 1459 1466 1473 1481 1490 1498
1405 1411 1417 1422 1424 1424 1421 1418 1418 1414 1412 1408 1404 1401 1397 1391 1385 1381 1377 1374 1370 1368 1369 1372 1377 1382 1385 1389 1394 1401 1405 1409 1412 1416 1418 1420 1424 1427 1428 1429 1434 1434 1443 1451 1458 1465 1474 1482 1490
1413 1415 1419 1420 1428 1427 1431 1423 1414 1416 1413 1412 1407 1402 1396 1391 1386 1381 1375 1371 1365 1364 1365 1367 1372 1378 1385 1389 1393 1398 1403 1406 1410 1412 1414 1417 1419 1421 1421 1419 1423 1429 1434 1442 1450 1457 1466 1474 1483
1414 1419 1421 1426 1434 1434 1434 1429 1409 1410 1409 1410 1405 1400 1395 1392 1387 1380 1375 1369 1363 1362 1362 1364 1368 1375 1382 1389 1392 1397 1402 1404 1407 1409 1411 1414 1415 1416 1417 1419 1421 1427 1431 1435 1444 1451 1458 1466 1477